GSAT0201 (PRN E18)

Last updated on Fri Jul 19 2024 00:03:11 GMT+0000 (Coordinated Universal Time)

1 40128U 14050A 24200.34895542 -.00000062 00000+0 00000+0 0 9990 2 40128 49.6276 301.8122 1612310 152.4769 217.1166 1.85519488 65358
UTC large
Height (km)
Speed (km/s)
/
Latitude / Longitude
Inclination (degrees)
Orbital Period (minutes)
Azimuth
Elevation
Range (km)
Doppler Factor

Next 0 passes for location: London (51.5072 / 0.1276)

Sorry there are no passes over London.